Regional Weather Roundup
Issued by NWS

Home | Current Version | Previous Version | Graphics & Text | Print | Product List | Glossary On
Versions: 1 2 3 4 5 6 7 8 9 10 11 12 13 14 15 16 17 18 19 20 21 22 23 24 25 26 27 28 29 30 31 32 33 34 35 36 37 38 39 40 41 42 43 44 45 46 47 48 49 50
283
ASUS45 KBOU 300207
RWRCO

WEATHER ROUNDUP FOR COLORADO
NATIONAL WEATHER SERVICE DENVER/BOULDER CO
800 PM MDT MON AUG 29 2016

NOTE: "FAIR" INDICATES FEW OR NO CLOUDS BELOW 12000 FEET WITH NO
SIGNIFICANT WEATHER AND/OR OBSTRUCTIONS TO VISIBILITY.

COZ001>005-013-030-031-300300-
...NORTHWEST COLORADO...

CITY           SKY/WX    TMP DP  RH WIND       PRES   REMARKS
CRAIG          FAIR      68  38  33 E6        30.29R
HAYDEN         FAIR      70  34  26 SE15      30.32R
MEEKER         FAIR      71  33  24 N8        30.29R
MOUNT WERNER   NOT AVBL
STEAMBOAT SPGS MOCLDY    71  35  26 CALM      30.35R
WALDEN         FAIR      59  32  36 E9G16     30.49R
$$

COZ006>008-011-300300-
...WEST CENTRAL VALLEYS...

CITY           SKY/WX    TMP DP  RH WIND       PRES   REMARKS
GRAND JUNCTION FAIR      77  45  32 SE15      30.19R
MONTROSE       LGT RAIN  66  53  63 S6        30.32R
EAGLE          FAIR      64  45  48 CALM      30.38S
RIFLE          FAIR      70  46  42 E17       30.27R
DELTA          FAIR      73  43  33 NE13G18   30.27R
NUCLA          MOCLDY   N/A N/A N/A SE9       30.30R
$$

COZ017>023-064>068-300300-
...SOUTHWEST COLORADO...

CITY           SKY/WX    TMP DP  RH WIND       PRES   REMARKS
DURANGO        FAIR      60  48  64 N9        30.35R
CORTEZ         MOCLDY    67  52  58 SE8       30.26R
PAGOSA SPRINGS FAIR      57  43  59 CALM      30.41R
TELLURIDE      CLOUDY    54  43  67 E6        30.50R
WOLF CREEK PAS FAIR      37  37 100 MISG      30.69S
$$

COZ009-010-012-014-032>034-037-058>063-300300-
...CENTRAL COLORADO...

CITY           SKY/WX    TMP DP  RH WIND       PRES   REMARKS
ASPEN          FAIR      55  45  68 SE12G17   30.44F
BUENA VISTA    CLOUDY    51  48  90 NE6       30.53R
COPPER MTN     FAIR      45  34  65 E14G20    30.72S
BERTHOUD PASS  CLOUDY    34  23  64 N14       30.77S WCI  24
COTTONWOOD PAS CLOUDY    46  41  81 W10       30.62R
GUNNISON       MOCLDY    57  43  58 NE9       30.50R
KREMMLING      FAIR      59  37  44 E13       30.47R
LEADVILLE      CLOUDY    43  40  89 E5        30.60F
MONARCH PASS   FOG       36  36 100 E21       30.79R VSB<1/4
SALIDA         CLOUDY    54  51  89 SW5       30.58F
SUNLIGHT       FAIR      46  41  81 W9        30.64R
WILKERSON PASS CLOUDY    37  36  93 E5        30.71S
$$

COZ069>075-300300-
...SAN LUIS VALLEY/SANGRE DE CRISTO MOUNTAINS...

CITY           SKY/WX    TMP DP  RH WIND       PRES   REMARKS
ALAMOSA        CLOUDY    58  45  62 N13       30.43R
LA VETA PASS   CLOUDY    45  41  87 NE13      30.61R
SAGUACHE       CLOUDY    52  45  76 N17G23    30.48S
$$

COZ035-036-038>040-300300-
...NORTHERN COLORADO FRONT RANGE...

CITY           SKY/WX    TMP DP  RH WIND       PRES   REMARKS
DENVER INTL AP MOCLDY    66  47  50 W13       30.35R
DMNS CITY PARK   N/A     62  50  66 W8        30.37R
AURORA         MOCLDY    64  48  56 W12       30.38S
FRONT RANGE AP MOCLDY    66  46  48 SW14      30.36R
ERIE MUNI ARPT LGT RAIN  58  55  87 W13G18    30.35F
BOULDER MUN AP LGT RAIN  59  54  82 W13G18    30.39S
CENTENNIAL     MOCLDY    62  47  57 W9        30.39R
BROOMFIELD     LGT RAIN  59  50  72 NW17      30.37F
FORT COLLINS   FAIR      64  52  63 SW12G20   30.31F
LONGMONT       LGT RAIN  61  55  80 SW15      30.36F
$$

COZ041-046-047-076>085-087-088-300300-
...PIKES PEAK/PALMER DIVIDE AND SOUTHERN FOOTHILLS...

CITY           SKY/WX    TMP DP  RH WIND       PRES   REMARKS
COLO. SPRINGS  MOCLDY    58  51  78 N9        30.42S
A. F. ACADEMY  MOCLDY    55  52  87 SE2       30.42S
SCHRIEVER AFB  NOT AVBL
ELLICOTT       NOT AVBL
FALCON         LGT RAIN  55  47  73 CALM      30.46R
FORT CARSON    MOCLDY    58  50  74 NW6       30.39R
LIMON          FAIR      63  50  62 NW5       30.34R
MONUMENT HILL  CLOUDY    54  45  71 SW10      30.45S
TRINIDAD       LGT RAIN  59  54  83 NW14      30.38R
$$

COZ042>045-048>051-090-091-300300-
...NORTHEAST COLORADO...

CITY           SKY/WX    TMP DP  RH WIND       PRES   REMARKS
GREELEY ARPT   FAIR      63  55  77 NW7       30.31R
AKRON          MOCLDY    70  54  56 S7        30.28S
BURLINGTON     CLOUDY    69  57  65 SE7       30.27S
WRAY           NOT AVBL
STERLING       FAIR      70  61  73 NE3       30.23S
HOLYOKE        FAIR      70  61  73 S5        30.24S
FORT MORGAN    MOCLDY    72  42  34 N6        30.28S
$$

COZ086-089-092>099-300300-
...SOUTHEAST COLORADO...

CITY           SKY/WX    TMP DP  RH WIND       PRES   REMARKS
PUEBLO         MOCLDY    66  50  56 NW10      30.31R
LA JUNTA       FAIR      69  53  56 NW14      30.26R
LAMAR          FAIR      71  57  61 E7        30.21R
SPRINGFIELD      N/A     64  60  87 CALM      30.26R
$$




USA.gov is the U.S. government's official web portal to all federal, state and local government web resources and services.